AirNav   Everest Fuels
 
 690 users online  

59MI Janski Heliport
Marine City, Michigan, USA

GOING TO MARINE CITY?


FAA INFORMATION EFFECTIVE 18 JUNE 2020

Location

FAA Identifier: 59MI
Lat/Long: 42-41-30.1100N 082-33-26.6700W
42-41.501833N 082-33.444500W
42.6916972,-82.5574083
(estimated)
Elevation: 850 ft. / 259 m (estimated)
Variation: 07W (1995)
From city: 5 miles E of MARINE CITY, MI
Time zone: UTC -4 (UTC -5 during Standard Time)
Zip code: 48039

Heliport Operations

Heliport use: Private use. Permission required prior to landing
Activation date: 08/1998
Control tower: no
ARTCC: CLEVELAND CENTER
FSS: LANSING FLIGHT SERVICE STATION
Attendance: UNATNDD
Wind indicator: yes
Segmented circle: yes

Heliport Communications

WX AWOS-3 at PHN (13 nm N): 118.375 (810-364-7787)

Nearby radio navigation aids

NDB name  Hdg/Dist  Freq  Var  ID
PHURN176/9.233207WPH .--. ....

Heliport Services

Runway Information

Helipad H1

Dimensions: 50 x 50 ft. / 15 x 15 m
Surface: concrete
Traffic pattern: leftleft

Heliport Ownership and Management from official FAA records

Ownership: Privately-owned
Owner: GREG JANSKI
6360 BROAD BRIDGE
MARINE CITY, MI 48039
Phone 810-765-1865
Manager: GREG JANSKI
6360 BROAD BRIDGE
MARINE CITY, MI 48039
Phone 810-765-1865

Heliport Operational Statistics

Aircraft based on the field: 1
Helicopters: 1
    

Additional Remarks

A52-H1 35 FT BLDG 100 FT S; 20 FT TREES 50 FT S.
FOR CD CTC CLEVELAND ARTCC AT 440-774-0490.

Instrument Procedures

There are no published instrument procedures at 59MI.

Some nearby airports with instrument procedures:

KMTC - Selfridge Air National Guard Base (13 nm W)
KPHN - St Clair County International Airport (13 nm N)
57D - Ray Community Airport (15 nm W)
D98 - Romeo State Airport (19 nm W)
KDET - Coleman A Young Municipal Airport (26 nm SW)
 
Loc | Ops | Rwys | IFR | FBO | Links
Com | Nav | Svcs | Stats | Notes
Area around 59MI (Janski Heliport)
 
Road maps at: MapQuest Bing Google
 
Aerial photo
No photo
 
Sectional chart

 
Airport distance calculator
Flying to Janski Heliport? Find the distance to fly.

From to 59MI

Sunrise and sunset
Times for 10-Jul-2020
 Local
(UTC-4)
 Zulu
(UTC)
Morning civil twilight05:2909:29
Sunrise06:0310:03
Sunset21:0801:08
Evening civil twilight21:4201:42

Current date and time
Zulu (UTC)  11-Jul-2020 03:55:08
Local (UTC-4)  10-Jul-2020 23:55:08
 
METAR
KMTC 
12nm W 
110311Z AUTO 30005KT 10SM OVC060 23/23 A2971 RMK AO2 TSE11 SLP061 $
KPHN 
14nm N 
110337Z AUTO 00000KT 5SM BR OVC070 21/20 A2972 RMK AO2
CYZR 
21nm NE 
110329Z AUTO 06003KT 6SM BR SCT018 BKN070 BKN096 OVC150 22/21 A2972 RMK SLP062 DENSITY ALT 1700FT
TAF
KMTC 
12nm W 
110100Z 1101/1207 30006KT 9000 -SHRA BKN020 QNH2966INS TEMPO 1101/1107 29020G25KT 8000 -TSRA OVC010CB BECMG 1108/1109 31009KT 9000 BR OVC015 QNH2969INS BECMG 1112/1113 30015G20KT 9999 NSW SCT020 BKN025 QNH2975INS BECMG 1115/1116 31020G25KT 9999 FEW030 QNH2977INS BECMG 1200/1201 32009KT 9999 SCT040 BKN050 QNH2979INS TX27/1121Z TN19/1111Z LAST NO AMDS AFT 1103 NEXT 1109
NOTAMs
Click for the latest NOTAMs
NOTAMs are issued by the DoD/FAA and will open in a separate window not controlled by AirNav.

 

 
 

Would you like to see your business listed on this page?

 If your business provides an interesting product or service to pilots, flight crews, aircraft, or users of the Janski Heliport, you should consider listing it here.  To start the listing process, click on the button below
 
Add a business
 

Other Pages about Janski Heliport

Update a link
 
Copyright © AirNav, LLC. All rights reserved. Privacy Policy  Contact